Middlesboro, KY

11:53 AM CDT on August 18, 2017 (GMT -0500)
Middlesboro

Weather History for K1A6 - February, 2012

Change the Weather History Date:

Wednesday, February 29, 2012

  Actual Average (KLOZ) Record (KLOZ)
Temperature  
Mean Temperature 64 °F -  
Max Temperature 68 °F - 77 °F (1972)
Min Temperature 60 °F - 5 °F (1964)
Degree Days  
Heating Degree Days 1    
Growing Degree Days 14 (Base 50)    
Moisture  
Dew Point 61 °F    
Average Humidity 89    
Maximum Humidity 100    
Minimum Humidity 68    
Precipitation  
Precipitation 0.52 in - - ()
Sea Level Pressure  
Sea Level Pressure 29.93 in    
Wind  
Wind Speed 9 mph (SSW)    
Max Wind Speed 15 mph    
Max Gust Speed 30 mph    
Visibility 9 miles    
Events Rain , Thunderstorm    
Averages and records for this station are not official NWS values.
T = Trace of Precipitation, MM = Missing Value Source: NWS Daily Summary

Daily Weather History Graph

Daily Weather History Graph

Search for Another Location

Airport or City:

Trip Planner

Search our weather history database for the weather conditions in past years. The results will help you decide how hot, cold, wet, or windy it might be!

Date:

Astronomy

Feb. 29, 2012 Rise Set
Actual Time 6:06 AM CST 5:29 PM CST
Civil Twilight 5:40 AM CST 5:54 PM CST
Nautical Twilight 5:10 AM CST 6:24 PM CST
Astronomical Twilight 4:40 AM CST 6:54 PM CST
Moon 10:08 AM CST (2/29) 12:03 AM CST (2/29)
Length of Visible Light 12h 14m
Length of Day
11h 22m
Waxing Crescent, 47% of the Moon is Illuminated
Feb 29
Waxing Crescent
Feb 29
First Quarter
Mar 8
Full
Mar 14
Last Quarter
Mar 22
New

Hourly Weather History & Observations

Time (CST) Temp. Dew Point Humidity Pressure Visibility Wind Dir Wind Speed Gust Speed Precip Events Conditions
12:15 AM 62.6 °F 53.6 °F 72% 30.13 in 10.0 mi South 6.9 mph - N/A   Overcast
12:35 AM 64.4 °F 53.6 °F 68% 30.13 in 10.0 mi SSW 12.7 mph 20.7 mph N/A   Overcast
12:55 AM 62.6 °F 53.6 °F 72% 30.12 in 10.0 mi SSW 8.1 mph 18.4 mph N/A   Overcast
1:15 AM 62.6 °F 55.4 °F 77% 30.11 in 7.0 mi South 10.4 mph 20.7 mph N/A   Overcast
1:35 AM 60.8 °F 55.4 °F 82% 30.09 in 10.0 mi South 10.4 mph 19.6 mph N/A   Overcast
2:15 AM 60.8 °F 55.4 °F 82% 30.03 in 10.0 mi SSW 12.7 mph 19.6 mph N/A Rain Light Rain
2:35 AM 60.8 °F 55.4 °F 82% 30.02 in 10.0 mi South 9.2 mph 19.6 mph N/A   Light Drizzle
2:55 AM 60.8 °F 57.2 °F 88% 30.02 in 10.0 mi SSW 10.4 mph 19.6 mph N/A   Overcast
3:15 AM 60.8 °F 57.2 °F 88% 30.02 in 7.0 mi SSW 11.5 mph 16.1 mph N/A Thunderstorm Drizzle
3:35 AM 60.8 °F 59.0 °F 94% 30.00 in 7.0 mi South 12.7 mph 18.4 mph N/A Rain Light Rain
3:55 AM 60.8 °F 59.0 °F 94% 30.03 in 7.0 mi SSW 3.5 mph 18.4 mph N/A   Overcast
4:15 AM 60.8 °F 59.0 °F 94% 30.02 in 5.0 mi SSW 3.5 mph - N/A Rain Light Rain
4:35 AM 60.8 °F 59.0 °F 94% 30.02 in 4.0 mi South 5.8 mph - N/A Rain Light Rain
4:55 AM 60.8 °F 59.0 °F 94% 30.01 in 4.0 mi South 9.2 mph - N/A Thunderstorm Drizzle
5:15 AM 60.8 °F 60.8 °F 100% 30.00 in 7.0 mi SSW 6.9 mph 23.0 mph N/A Rain Light Rain
5:35 AM 60.8 °F 60.8 °F 100% 30.00 in 5.0 mi SSW 12.7 mph 21.9 mph N/A   Overcast
5:55 AM 60.8 °F 59.0 °F 94% 30.01 in 5.0 mi SW 8.1 mph - N/A   Light Drizzle
6:15 AM 60.8 °F 60.8 °F 100% 30.02 in 4.0 mi SSW 8.1 mph 16.1 mph N/A Rain Light Rain
6:35 AM 60.8 °F 60.8 °F 100% 30.00 in 7.0 mi South 12.7 mph 17.3 mph N/A   Light Drizzle
6:55 AM 62.6 °F 60.8 °F 94% 30.00 in 7.0 mi SSW 13.8 mph 21.9 mph N/A   Overcast
7:15 AM 62.6 °F 62.6 °F 100% 30.01 in 10.0 mi SSW 9.2 mph 26.5 mph N/A   Overcast
7:35 AM 64.4 °F 60.8 °F 88% 30.02 in 10.0 mi SW 11.5 mph 24.2 mph N/A   Overcast
7:55 AM 64.4 °F 60.8 °F 88% 30.02 in 10.0 mi SW 11.5 mph 20.7 mph N/A   Overcast
8:15 AM 66.2 °F 60.8 °F 83% 30.02 in 10.0 mi SSW 11.5 mph 26.5 mph N/A   Overcast
8:35 AM 64.4 °F 62.6 °F 94% 30.03 in 4.0 mi SW 3.5 mph 21.9 mph N/A Rain Rain
8:55 AM 64.4 °F 62.6 °F 94% 30.02 in 7.0 mi SW 4.6 mph 17.3 mph 0.01 in Rain Rain
9:15 AM 66.2 °F 62.6 °F 88% 29.99 in 10.0 mi SSW 10.4 mph - 0.01 in   Overcast
9:55 AM 66.2 °F 62.6 °F 88% 29.99 in 10.0 mi SSW 15.0 mph 21.9 mph N/A   Overcast
10:15 AM 66.2 °F 62.6 °F 88% 29.98 in 10.0 mi SW 10.4 mph - N/A   Overcast
10:35 AM 66.2 °F 62.6 °F 88% 29.97 in 10.0 mi SSW 10.4 mph 21.9 mph N/A Rain Light Rain
10:55 AM 66.2 °F 62.6 °F 88% 29.97 in 10.0 mi SSW 12.7 mph 23.0 mph N/A   Light Drizzle
11:35 AM 66.2 °F 62.6 °F 88% 29.95 in 10.0 mi SSW 13.8 mph 20.7 mph N/A Rain Light Rain
12:15 PM 66.2 °F 62.6 °F 88% 29.90 in 10.0 mi SSW 9.2 mph 19.6 mph N/A   Overcast
12:35 PM 66.2 °F 62.6 °F 88% 29.90 in 10.0 mi SSW 6.9 mph 20.7 mph N/A   Overcast
12:55 PM 66.2 °F 62.6 °F 88% 29.89 in 10.0 mi SSW 13.8 mph 17.3 mph N/A   Overcast
1:15 PM 66.2 °F 62.6 °F 88% 29.87 in 10.0 mi SSW 11.5 mph 24.2 mph N/A Rain Light Rain
1:35 PM 66.2 °F 62.6 °F 88% 29.85 in 10.0 mi South 11.5 mph 20.7 mph N/A   Overcast
1:55 PM 66.2 °F 62.6 °F 88% 29.85 in 10.0 mi SSW 5.8 mph 20.7 mph N/A   Overcast
2:15 PM 66.2 °F 62.6 °F 88% 29.81 in 10.0 mi SSW 9.2 mph 21.9 mph N/A Thunderstorm Overcast
2:35 PM 66.2 °F 62.6 °F 88% 29.82 in 10.0 mi SSW 11.5 mph 19.6 mph N/A   Overcast
2:55 PM 66.2 °F 62.6 °F 88% 29.83 in 10.0 mi SW 10.4 mph 19.6 mph N/A   Overcast
3:15 PM 66.2 °F 62.6 °F 88% 29.80 in 10.0 mi SSW 12.7 mph 29.9 mph N/A Rain Light Rain
3:35 PM 66.2 °F 62.6 °F 88% 29.79 in 10.0 mi SSW 10.4 mph 25.3 mph N/A Rain Light Rain
3:55 PM 66.2 °F 62.6 °F 88% 29.79 in 10.0 mi SSW 5.8 mph 18.4 mph N/A Rain , Thunderstorm Light Thunderstorms and Rain
4:15 PM 66.2 °F 62.6 °F 88% 29.79 in 7.0 mi West 3.5 mph - N/A Rain , Thunderstorm Rain
4:35 PM 66.2 °F 62.6 °F 88% 29.79 in 7.0 mi SSW 4.6 mph - N/A Rain , Thunderstorm Light Thunderstorms and Rain
4:55 PM 66.2 °F 62.6 °F 88% 29.77 in 5.0 mi SSW 9.2 mph 18.4 mph 0.03 in Rain , Thunderstorm Heavy Thunderstorms and Rain
5:15 PM 64.4 °F 64.4 °F 100% 29.82 in 3.0 mi West 6.9 mph 16.1 mph 0.26 in Rain , Thunderstorm Heavy Thunderstorms and Rain
5:35 PM 64.4 °F 62.6 °F 94% 29.76 in 10.0 mi SW 6.9 mph - 0.47 in Rain , Thunderstorm Heavy Thunderstorms and Rain
5:55 PM 64.4 °F 62.6 °F 94% 29.78 in 10.0 mi SW 6.9 mph - N/A   Scattered Clouds
6:15 PM 66.2 °F 62.6 °F 88% 29.78 in 10.0 mi SW 3.5 mph - N/A   Mostly Cloudy
6:35 PM 64.4 °F 62.6 °F 94% 29.78 in 10.0 mi SSW 3.5 mph - N/A   Mostly Cloudy
6:55 PM 64.4 °F 62.6 °F 94% 29.79 in 10.0 mi WSW 3.5 mph - N/A   Overcast
7:15 PM 64.4 °F 64.4 °F 100% 29.80 in 10.0 mi South 3.5 mph - N/A   Overcast
7:35 PM 64.4 °F 62.6 °F 94% 29.81 in 10.0 mi WSW 4.6 mph - N/A Thunderstorm Unknown
7:55 PM 66.2 °F 60.8 °F 83% 29.81 in 10.0 mi WSW 8.1 mph 18.4 mph N/A   Overcast
8:15 PM 68.0 °F 60.8 °F 78% 29.80 in 10.0 mi West 10.4 mph 24.2 mph N/A   Scattered Clouds
8:35 PM 68.0 °F 60.8 °F 78% 29.79 in 10.0 mi SW 9.2 mph - N/A   Scattered Clouds
8:55 PM 69.8 °F 60.8 °F 73% 29.80 in 10.0 mi West 5.8 mph 16.1 mph N/A   Scattered Clouds
9:15 PM 69.8 °F 60.8 °F 73% 29.79 in 10.0 mi SSW 9.2 mph - N/A   Mostly Cloudy
9:35 PM 66.2 °F 62.6 °F 88% 29.78 in 10.0 mi South 10.4 mph 17.3 mph N/A   Overcast
9:55 PM 66.2 °F 62.6 °F 88% 29.78 in 10.0 mi SSW 9.2 mph 21.9 mph N/A Rain , Thunderstorm Light Thunderstorms and Rain
10:15 PM 66.2 °F 60.8 °F 83% 29.80 in 7.0 mi WSW 5.8 mph 18.4 mph N/A Rain Rain
10:35 PM 62.6 °F 60.8 °F 94% 29.80 in 4.0 mi West 9.2 mph 18.4 mph 0.15 in Rain , Thunderstorm Light Thunderstorms and Rain
10:55 PM 62.6 °F 60.8 °F 94% 29.82 in 7.0 mi SW 5.8 mph 17.3 mph 0.02 in Rain Rain
11:15 PM 62.6 °F 57.2 °F 82% 29.82 in 10.0 mi West 9.2 mph - 0.03 in Rain , Thunderstorm Light Thunderstorms and Rain
11:35 PM 62.6 °F 57.2 °F 82% 29.81 in 10.0 mi West 11.5 mph - 0.03 in   Overcast